XMM-NEWTON (25989 NORAD) Tracking and Keplerian Element Data

This shows tracking and keplerian element data for the satellite.

Feedback or suggestion? Click here.




ElementValue
Catalog25989
NameXMM-NEWTON
Epoch Orbit2210
Epoch Day352.84950202
Epoch Year2025
RAAN285.3699
Inclination65.4033
Eccentricity0.4740231
Argument of Perigee68.0474
Mean Anonmoly0.2178
Mean Motion0.50133546
Decay Rate8.1E-07
L11 25989U 99066A 25352.84950202 .00000081 00000+0 00000+0 0 9997
L22 25989 65.4033 285.3699 4740231 68.0474 0.2178 0.50133546 22108



Live tracking and technical data element details for XMM-NEWTON (NORAD 25989). XMM-NEWTON can be tracked NOW for your location showing map with azimuth and elevation plus other details from your city location.







IsCatalogInMostPopularTable: catalog: 25989, numindb: 426
Update: records affected: 1



GetName: 25989 XMM-NEWTON

Hit Count: updated at: Wed, 15 Apr 2026 00:52:26 GMT